Durant, OK

5:58 PM CST on December 09, 2019 (GMT -0600)
Eaker

Weather History for KDUA - October, 2019

Change the Weather History Date:

Sunday, October 6, 2019

  Actual Average (WUND) Record (WUND)
Temperature  
Mean Temperature 78 °F -  
Max Temperature 95 °F - - (-1)
Min Temperature 62 °F - - (-1)
Cooling Degree Days 14    
Growing Degree Days 28 (Base 50)    
Moisture  
Dew Point 64 °F    
Average Humidity 68    
Maximum Humidity 94    
Minimum Humidity 32    
Precipitation  
Precipitation 0.00 in - - ()
Sea Level Pressure  
Sea Level Pressure 30.00 in    
Wind  
Wind Speed 6 mph (SW)    
Max Wind Speed 22 mph    
Max Gust Speed 30 mph    
Visibility 9 miles    
Events Rain    
Averages and records for this station are not official NWS values.
T = Trace of Precipitation, MM = Missing Value Source: NWS Daily Summary

Daily Weather History Graph

Daily Weather History Graph

Search for Another Location

Airport or City:

Astronomy

Oct. 06, 2019 Rise Set
Actual Time 7:23 AM CDT 7:03 PM CDT
Civil Twilight 6:58 AM CDT 7:28 PM CDT
Nautical Twilight 6:29 AM CDT 7:57 PM CDT
Astronomical Twilight 6:00 AM CDT 8:26 PM CDT
Moon 3:22 PM CDT (10/6) 12:43 AM CDT (10/6)
Length of Visible Light 12h 29m
Length of Day
11h 39m
First Quarter, 60% of the Moon is Illuminated
Oct 6
First Quarter
Oct 13
Full
Oct 21
Last Quarter
Oct 27
New
Nov 4
First Quarter

Hourly Weather History & Observations

Time (CDT) Temp. Heat Index Dew Point Humidity Pressure Visibility Wind Dir Wind Speed Gust Speed Precip Events Conditions
12:36 AM 73.4 °F - 66.2 °F 78% 29.95 in 0.8 mi SE 3.5 mph - N/A   Haze
12:55 AM 73.4 °F - 66.2 °F 78% 29.95 in 1.5 mi SE 3.5 mph - N/A   Haze
1:14 AM 73.4 °F - 66.2 °F 78% 29.96 in 5.0 mi SE 3.5 mph - N/A   Haze
1:37 AM 73.4 °F - 66.2 °F 78% 29.95 in 10.0 mi SSE 4.6 mph - N/A   Clear
1:54 AM 73.4 °F - 66.2 °F 78% 29.95 in 10.0 mi SSE 5.8 mph - N/A   Clear
2:14 AM 71.6 °F - 66.2 °F 83% 29.95 in 10.0 mi SSE 5.8 mph - N/A   Clear
2:34 AM 73.4 °F - 66.2 °F 78% 29.96 in 10.0 mi SSE 5.8 mph - N/A   Clear
2:54 AM 73.4 °F - 66.2 °F 78% 29.96 in 10.0 mi South 4.6 mph - N/A   Clear
3:15 AM 73.4 °F - 66.2 °F 78% 29.95 in 10.0 mi South 4.6 mph - N/A   Clear
3:34 AM 73.4 °F - 66.2 °F 78% 29.95 in 10.0 mi SSE 5.8 mph - N/A   Clear
4:14 AM 71.6 °F - 66.2 °F 83% 29.94 in 10.0 mi South 4.6 mph - N/A   Clear
4:36 AM 71.6 °F - 66.2 °F 83% 29.95 in 10.0 mi South 4.6 mph - N/A   Clear
4:55 AM 71.6 °F - 66.2 °F 83% 29.95 in 10.0 mi South 4.6 mph - N/A   Clear
5:34 AM 71.6 °F - 66.2 °F 83% 29.96 in 10.0 mi Calm Calm - N/A   Clear
5:55 AM 71.6 °F - 66.2 °F 83% 29.97 in 10.0 mi Calm Calm - N/A   Clear
6:34 AM 71.6 °F - 66.2 °F 83% 29.97 in 10.0 mi Calm Calm - N/A   Clear
6:54 AM 69.8 °F - 66.2 °F 88% 29.98 in 1.2 mi Calm Calm - N/A   Mist
7:14 AM 69.8 °F - 64.4 °F 83% 29.99 in 2.0 mi ESE 3.5 mph - N/A   Clear
7:36 AM 69.8 °F - 66.2 °F 88% 29.99 in 4.0 mi Calm Calm - N/A   Clear
7:54 AM 69.8 °F - 66.2 °F 88% 29.99 in 7.0 mi Calm Calm - N/A   Clear
8:14 AM 71.6 °F - 69.8 °F 94% 30.00 in 10.0 mi Calm Calm - N/A   Clear
8:36 AM 73.4 °F - 69.8 °F 88% 30.00 in 10.0 mi Calm Calm - N/A   Clear
8:54 AM 75.2 °F - 69.8 °F 83% 30.00 in 7.0 mi Calm Calm - N/A   Clear
9:54 AM 82.4 °F 86.3 °F 69.8 °F 66% 30.00 in 10.0 mi South 6.9 mph - N/A   Clear
10:16 AM 84.2 °F 87.3 °F 68.0 °F 58% 30.00 in 10.0 mi South 8.1 mph - N/A   Scattered Clouds
10:35 AM 84.2 °F 86.6 °F 66.2 °F 55% 30.01 in 10.0 mi SSW 8.1 mph - N/A   Scattered Clouds
10:54 AM 87.8 °F 90.4 °F 66.2 °F 49% 30.01 in 10.0 mi SSW 10.4 mph - N/A   Scattered Clouds
11:17 AM 87.8 °F 90.4 °F 66.2 °F 49% 30.01 in 10.0 mi SSW 8.1 mph - N/A   Mostly Cloudy
11:37 AM 89.6 °F 91.1 °F 64.4 °F 43% 30.00 in 10.0 mi SSW 9.2 mph - N/A   Mostly Cloudy
11:56 AM 91.4 °F 93.2 °F 64.4 °F 41% 30.00 in 10.0 mi SW 12.7 mph - N/A   Scattered Clouds
12:15 PM 91.4 °F 92.1 °F 62.6 °F 38% 30.00 in 10.0 mi SW 9.2 mph - N/A   Scattered Clouds
12:56 PM 93.2 °F 94.1 °F 62.6 °F 36% 29.98 in 10.0 mi SW 11.5 mph - N/A   Clear
1:14 PM 93.2 °F 94.1 °F 62.6 °F 36% 29.97 in 10.0 mi SW 9.2 mph - N/A   Scattered Clouds
1:37 PM 93.2 °F 93.3 °F 60.8 °F 34% 29.97 in 10.0 mi WSW 9.2 mph - N/A   Scattered Clouds
2:14 PM 95.0 °F 95.2 °F 60.8 °F 32% 29.96 in 10.0 mi West 10.4 mph - N/A   Scattered Clouds
2:56 PM 93.2 °F 94.1 °F 62.6 °F 36% 29.95 in 10.0 mi West 5.8 mph - N/A   Mostly Cloudy
3:15 PM 91.4 °F 92.1 °F 62.6 °F 38% 29.95 in 10.0 mi West 4.6 mph - N/A   Overcast
3:35 PM 87.8 °F 91.4 °F 68.0 °F 52% 29.95 in 10.0 mi West 10.4 mph - N/A Rain Light Rain
3:55 PM 87.8 °F 90.4 °F 66.2 °F 49% 29.94 in 10.0 mi Calm Calm - N/A   Mostly Cloudy
4:35 PM 89.6 °F 92.2 °F 66.2 °F 46% 29.93 in 10.0 mi SE 8.1 mph - N/A   Scattered Clouds
5:15 PM 87.8 °F 90.4 °F 66.2 °F 49% 29.94 in 10.0 mi North 10.4 mph - N/A   Mostly Cloudy
5:35 PM 80.6 °F 83.2 °F 68.0 °F 65% 29.95 in 10.0 mi NNW 15.0 mph - N/A   Scattered Clouds
5:56 PM 80.6 °F 82.7 °F 66.2 °F 61% 29.97 in 10.0 mi NNE 20.7 mph 25.3 mph N/A   Scattered Clouds
6:15 PM 78.8 °F - 66.2 °F 65% 29.99 in 10.0 mi NNW 18.4 mph 25.3 mph N/A   Scattered Clouds
6:37 PM 75.2 °F - 64.4 °F 69% 30.02 in 10.0 mi North 17.3 mph 25.3 mph N/A   Scattered Clouds
7:16 PM 69.8 °F - 60.8 °F 73% 30.06 in 10.0 mi NNW 18.4 mph 26.5 mph N/A   Overcast
7:36 PM 68.0 °F - 60.8 °F 78% 30.06 in 10.0 mi NNW 15.0 mph 28.8 mph N/A   Overcast
7:56 PM 66.2 °F - 60.8 °F 83% 30.07 in 10.0 mi NNW 21.9 mph 28.8 mph N/A   Overcast
8:35 PM 64.4 °F - 59.0 °F 83% 30.08 in 10.0 mi NNW 21.9 mph - N/A   Overcast
8:55 PM 64.4 °F - 57.2 °F 77% 30.10 in 10.0 mi North 19.6 mph 24.2 mph N/A   Overcast
9:15 PM 64.4 °F - 57.2 °F 77% 30.11 in 10.0 mi North 3.5 mph 27.6 mph N/A   Overcast
9:56 PM 62.6 °F - 57.2 °F 82% 30.14 in 10.0 mi NNE 13.8 mph 24.2 mph N/A   Overcast
10:15 PM 62.6 °F - 55.4 °F 77% 30.14 in 10.0 mi North 17.3 mph 24.2 mph N/A   Overcast
10:36 PM 62.6 °F - 55.4 °F 77% 30.15 in 10.0 mi NE 16.1 mph 21.9 mph N/A   Overcast
11:15 PM 62.6 °F - 51.8 °F 68% 30.15 in 10.0 mi NNW 20.7 mph 26.5 mph N/A   Overcast
11:37 PM 62.6 °F - 50.0 °F 63% 30.15 in 10.0 mi North 17.3 mph 29.9 mph N/A   Overcast